Telstar 301

operational
NORAD ID: 14234 Int'l Des: 1983-077 Owner: ATTS Country: US
HEOCIRCULAR

关于 Telstar 301

正在加载描述...

实时位置

正在加载3D地球...

即将过境

高度历史

Altitude vs Time

uPlot chart will show altitude changes over time

两行轨道根数

1 14234U 83077A 26061.81253956 .00000001 00000-0 00000-0 0 9994
2 14234 13.8593 342.7513 0022603 171.4523 188.6023 0.99520465 45283
Epoch: Mar 2, 2026 • Age: 55 hours

当前状态

高度 35901.5 km
速度 3.07 km/s
星下点 2.32°N, 114.01°W
发射日期 Jul 28, 1983
运行时间 42.6 years
类型 other

技术详情

分类 Payload
质量 619.00 kg
干质量 522.00 kg
总质量 1225.00 kg
长度 6.60 m
直径 2.20 m
跨度 6.60 m
形状 Cyl
制造商 HSES
平台类型 HS-376
阶段状态 Renamed
所有者/国家 ATTS/US

大型星座

Loading constellations...